Location: Benalto
(52.3088°N, 114.2787°W)
Time: 12:06:19
(UTC+00:00)

N. Korean satellite - Pass Details

Date: 08 December 2021
Orbit: 447 x 491 km, 97.3° (Epoch: 21 January)

Event Time Altitude Azimuth Distance (km) Brightness Sun altitude
Rises 00:59:36 0° 207° (SSW) 2,513 11.0 -13.5°
Reaches altitude 10° 01:02:18 10° 230° (SW) 1,631 10.4 -13.9°
Maximum altitude 01:04:30 16° 269° (W) 1,308 9.8 -14.2°
Drops below altitude 10° 01:06:43 10° 309° (NW) 1,623 9.7 -14.5°
Sets 01:09:23 0° 332° (NNW) 2,495 10.3 -14.9°
